Easton, MD

7:31 AM EDT on August 25, 2016 (GMT -0400)
Easton / Newnam

Weather History for KESN - November, 2011

Change the Weather History Date:

Thursday, November 10, 2011

  Actual Average Record
Temperature  
Mean Temperature 52 °F -  
Max Temperature 60 °F 59 °F 72 °F (1966)
Min Temperature 44 °F 41 °F 28 °F (1954)
Degree Days  
Heating Degree Days 13    
Growing Degree Days 2 (Base 50)    
Moisture  
Dew Point 47 °F    
Average Humidity 92    
Maximum Humidity 100    
Minimum Humidity 71    
Precipitation  
Precipitation 0.00 in - - ()
Sea Level Pressure  
Sea Level Pressure 29.90 in    
Wind  
Wind Speed 4 mph (NNW)    
Max Wind Speed 17 mph    
Max Gust Speed 24 mph    
Visibility 4 miles    
Events Fog , Rain    
Averages and records for this station are not official NWS values.
T = Trace of Precipitation, MM = Missing Value Source: NWS Daily Summary

Daily Weather History Graph

Daily Weather History Graph

Search for Another Location

Airport or City:

Trip Planner

Search our weather history database for the weather conditions in past years. The results will help you decide how hot, cold, wet, or windy it might be!

Date:

Astronomy

Nov. 10, 2011 Rise Set
Actual Time 6:40 AM EST 4:54 PM EST
Civil Twilight 6:12 AM EST 5:23 PM EST
Nautical Twilight 5:40 AM EST 5:54 PM EST
Astronomical Twilight 5:09 AM EST 6:26 PM EST
Moon 4:42 PM EST (11/10) 6:30 AM EST (11/10)
Length of Visible Light 11h 10m
Length of Day
10h 14m
Full, 100% of the Moon is Illuminated
Nov 10
Full
Nov 10
Full
Nov 18
Last Quarter
Nov 25
New
Dec 2
First Quarter

Hourly Weather History & Observations

Time (EST) Temp. Windchill Dew Point Humidity Pressure Visibility Wind Dir Wind Speed Gust Speed Precip Events Conditions
12:09 AM 51.8 °F - 51.8 °F 100% 30.02 in 0.2 mi Calm Calm - N/A Fog Fog
12:27 AM 51.8 °F - 51.8 °F 100% 30.01 in 0.2 mi Calm Calm - N/A Fog Fog
12:48 AM 51.8 °F - 51.8 °F 100% 30.01 in 0.2 mi Calm Calm - N/A Fog Fog
1:06 AM 50.0 °F - 50.0 °F 100% 30.00 in 0.2 mi Calm Calm - N/A Fog Fog
1:27 AM 50.0 °F - 50.0 °F 100% 30.00 in 0.2 mi Calm Calm - N/A Fog Fog
1:45 AM 50.0 °F - 50.0 °F 100% 30.00 in 0.2 mi Calm Calm - N/A Fog Fog
2:06 AM 48.2 °F - 48.2 °F 100% 29.99 in 0.2 mi Calm Calm - N/A Fog Fog
2:24 AM 46.4 °F - 46.4 °F 100% 29.99 in 0.2 mi Calm Calm - N/A   Light Drizzle
2:42 AM 46.4 °F - 46.4 °F 100% 29.98 in 0.5 mi Calm Calm - N/A Fog Fog
3:03 AM 46.4 °F - 46.4 °F 100% 29.97 in 0.2 mi Calm Calm - N/A Fog Fog
3:21 AM 46.4 °F - 46.4 °F 100% 29.96 in 0.5 mi Calm Calm - N/A Fog Fog
3:42 AM 48.2 °F - 48.2 °F 100% 29.95 in 0.2 mi Calm Calm - N/A Fog Fog
4:00 AM 48.2 °F - 48.2 °F 100% 29.95 in 0.2 mi Calm Calm - N/A Fog Fog
4:21 AM 48.2 °F - 48.2 °F 100% 29.95 in 0.2 mi Calm Calm - N/A Fog Fog
4:39 AM 48.2 °F - 48.2 °F 100% 29.95 in 0.2 mi Calm Calm - N/A Fog Fog
5:00 AM 48.2 °F - 48.2 °F 100% 29.95 in 0.2 mi Calm Calm - N/A Fog Fog
5:15 AM 48.2 °F - 48.2 °F 100% 29.95 in 0.2 mi Calm Calm - N/A Fog Fog
5:50 AM 48.2 °F - 48.2 °F 100% 29.93 in 0.2 mi Calm Calm - N/A Fog Fog
6:50 AM 48.2 °F - 48.2 °F 100% 29.93 in 0.1 mi Calm Calm - N/A Fog Fog
7:50 AM 50.0 °F - 50.0 °F 100% 29.94 in 0.1 mi NW 4.6 mph - N/A Fog Fog
8:50 AM 51.8 °F - 51.8 °F 100% 29.93 in 0.1 mi Calm Calm - N/A Fog Fog
9:50 AM 53.6 °F - 53.6 °F 100% 29.92 in 0.1 mi North 4.6 mph - N/A Fog Fog
10:30 AM 55.4 °F - 55.4 °F 100% 29.90 in 2.0 mi Calm Calm - N/A   Overcast
10:50 AM 57.2 °F - 57.2 °F 100% 29.89 in 0.5 mi NNW 3.5 mph - N/A   Overcast
11:10 AM 55.4 °F - 55.4 °F 100% 29.90 in 0.5 mi NNW 15.0 mph - N/A Fog Fog
11:22 AM 55.4 °F - 55.4 °F 100% 29.89 in 1.2 mi NNW 8.1 mph - N/A   Overcast
12:25 PM 57.2 °F - 55.4 °F 94% 29.87 in 4.0 mi NNW 13.8 mph 19.6 mph N/A   Overcast
12:53 PM 60.8 °F - 55.4 °F 82% 29.84 in 7.0 mi North 17.3 mph 23.0 mph N/A   Mostly Cloudy
1:53 PM 55.4 °F - 50.0 °F 82% 29.83 in 7.0 mi NNW 15.0 mph 21.9 mph N/A   Overcast
2:45 PM 55.4 °F - 48.2 °F 77% 29.82 in 10.0 mi NW 15.0 mph 23.0 mph N/A   Overcast
3:50 PM 51.8 °F - 46.4 °F 82% 29.82 in 10.0 mi North 10.4 mph 21.9 mph N/A   Overcast
4:47 PM 48.2 °F - 46.4 °F 93% 29.82 in 10.0 mi NNW 10.4 mph 16.1 mph N/A   Overcast
5:46 PM 48.2 °F - 44.6 °F 87% 29.84 in 7.0 mi NNW 12.7 mph 20.7 mph N/A   Overcast
6:48 PM 46.4 °F 42.4 °F 46.4 °F 100% 29.87 in 4.0 mi North 8.1 mph - N/A Rain Light Rain
7:47 PM 44.6 °F 40.7 °F 44.6 °F 100% 29.83 in 5.0 mi NNW 6.9 mph - N/A   Overcast
8:59 PM 46.4 °F 40.4 °F 41.0 °F 81% 29.83 in 5.0 mi NNW 13.8 mph 23.0 mph N/A   Mostly Cloudy
9:24 PM 44.6 °F 38.8 °F 37.4 °F 76% 29.82 in 10.0 mi NNW 11.5 mph 20.7 mph N/A   Scattered Clouds
9:42 PM 44.6 °F 38.4 °F 41.0 °F 87% 29.83 in 10.0 mi NW 12.7 mph 16.1 mph N/A   Scattered Clouds
10:03 PM 44.6 °F 38.1 °F 37.4 °F 76% 29.82 in 10.0 mi NW 13.8 mph - N/A   Scattered Clouds
10:21 PM 44.6 °F 37.4 °F 37.4 °F 76% 29.81 in 10.0 mi NW 16.1 mph 24.2 mph N/A   Clear
10:39 PM 44.6 °F 38.4 °F 37.4 °F 76% 29.81 in 10.0 mi NW 12.7 mph - N/A   Scattered Clouds
11:00 PM 44.6 °F 39.2 °F 37.4 °F 76% 29.81 in 10.0 mi NW 10.4 mph - N/A   Scattered Clouds
11:18 PM 44.6 °F 38.4 °F 35.6 °F 71% 29.81 in 10.0 mi NW 12.7 mph 18.4 mph N/A   Clear
11:39 PM 44.6 °F 37.4 °F 35.6 °F 71% 29.81 in 10.0 mi NW 16.1 mph 19.6 mph N/A   Clear
11:57 PM 44.6 °F 37.8 °F 35.6 °F 71% 29.81 in 10.0 mi NW 15.0 mph 19.6 mph N/A   Clear